AirNav   Air Wisconsin Up To $57,000 Bonus
 
 1272 users online  

7XS0 Polly Ranch Airport
Friendswood, Texas, USA

GOING TO FRIENDSWOOD?


FAA INFORMATION EFFECTIVE 05 NOVEMBER 2020

Location

FAA Identifier: 7XS0
Lat/Long: 29-30-16.8390N 095-10-31.7580W
29-30.280650N 095-10.529300W
29.5046775,-95.1754883
(estimated)
Elevation: 24 ft. / 7.3 m (surveyed)
Variation: 06E (1985)
From city: 3 miles SE of FRIENDSWOOD, TX
Time zone: UTC -6 (UTC -5 during Daylight Saving Time)
Zip code: 77546

Airport Operations

Airport use: Private use. Permission required prior to landing
Activation date: 03/1977
Control tower: no
ARTCC: HOUSTON CENTER
FSS: MONTGOMERY COUNTY FLIGHT SERVICE STATION
Attendance: UNATNDD
Wind indicator: yes
Segmented circle: no
Lights: SS-SR
Landing fee: yes

Airport Communications

WX ASOS at LVJ (4 nm W): 118.525 (281-992-1853)
WX AWOS-3 at EFD (6 nm N): 135.575 (713-847-4430)
WX ASOS at HOU (10 nm NW): PHONE 713-847-1462
WX AWOS-3PT at T41 (11 nm NE): 120.275 (281-471-2206)
WX AWOS-3 at AXH (16 nm W): 123.625 (281-431-6572)

Nearby radio navigation aids

VOR radial/distance  VOR name  Freq  Var
VUHr305/21.4SCHOLES VOR/DME113.0006E
MHFr257/22.5TRINITY VOR/DME113.6007E
IAHr157/28.5HUMBLE VORTAC116.6005E

Airport Services

Runway Information

Runway 11/29

Dimensions: 2700 x 22 ft. / 823 x 7 m
Surface: asphalt
Runway edge lights: low intensity
RUNWAY 11  RUNWAY 29
Traffic pattern: leftleft
Displaced threshold: 300 ft.300 ft.
Obstructions: none50 ft. trees, 500 ft. from runway

Airport Ownership and Management from official FAA records

Ownership: Privately-owned
Owner: POLLY RANCH HOME OWNERS ASSOC
PO BOX 161
FRIENDSWOOD, TX 77546
Phone 713-482-6430
Manager: GAYLON KOENNING
2304 BUTLER DR
FRIENDSWOOD, TX 77546
Phone (713) 503-2055

Airport Operational Statistics

Aircraft based on the field: 36
Single engine airplanes: 30
Multi engine airplanes: 6
    

Additional Remarks

FOR CD CTC HOUSTON APCH AT 281-443-5844.

Instrument Procedures

There are no published instrument procedures at 7XS0.

Some nearby airports with instrument procedures:

KLVJ - Pearland Regional Airport (4 nm W)
KEFD - Ellington Airport (6 nm N)
KHOU - William P Hobby Airport (10 nm NW)
T41 - La Porte Municipal Airport (11 nm NE)
KAXH - Houston Southwest Airport (16 nm W)
 
Loc | Ops | Rwys | IFR | FBO | Links
Com | Nav | Svcs | Stats | Notes
Area around 7XS0 (Polly Ranch Airport)
 
Road maps at: MapQuest Bing Google
 
Aerial photo
WARNING: Photo may not be current or correct
Aerial photo of 7XS0 (Polly Ranch Airport)
Do you have a better or more recent aerial photo of Polly Ranch Airport that you would like to share? If so, please send us your photo.

 
Sectional chart

 
Airport distance calculator
Flying to Polly Ranch Airport? Find the distance to fly.

From to 7XS0

Sunrise and sunset
Times for 25-Nov-2020
 Local
(UTC-6)
 Zulu
(UTC)
Morning civil twilight06:2912:29
Sunrise06:5512:55
Sunset17:2123:21
Evening civil twilight17:4723:47

Current date and time
Zulu (UTC)  25-Nov-2020 20:49:26
Local (UTC-6)  25-Nov-2020 14:49:26
 
METAR
KLVJ 
4nm W 
251953Z AUTO 34008KT 10SM BKN050 23/09 A3003 RMK AO2 SLP168 T02330089
KEFD 
6nm N 
251950Z 30010KT 10SM BKN060 23/09 A3002
KHOU 
10nm NW 
251953Z 33007KT 10SM BKN055 23/09 A3002 RMK AO2 SLP169 T02330094
KT41 
11nm NE 
252035Z AUTO 31007KT 10SM OVC050 22/11 A3002 RMK AO2 T02190105
KAXH 
16nm W 
252035Z AUTO 35006KT 10SM SCT049 23/09 A3002 RMK AO2 T02310090
TAF
KEFD 
6nm N 
252000Z 2520/2702 36006KT 9999 SCT060 QNH3000INS BECMG 2611/2612 06006KT 9999 FEW010 BKN025 QNH3004INS BECMG 2616/2617 09009KT 8000 -SHRA OVC010 QNH2998INS BECMG 2621/2622 09009KT 9999 NSW OVC010 QNH2999INS TX24/2520Z TN13/2610Z
KHOU 
10nm NW 
251740Z 2518/2618 35010KT P6SM BKN050 FM260000 36005KT P6SM FEW250 FM260900 05005KT P6SM SCT050 BKN250 FM261500 09006KT P6SM BKN050 OVC100
NOTAMs
Click for the latest NOTAMs
NOTAMs are issued by the DoD/FAA and will open in a separate window not controlled by AirNav.

 

 
 

Would you like to see your business listed on this page?

 If your business provides an interesting product or service to pilots, flight crews, aircraft, or users of the Polly Ranch Airport, you should consider listing it here.  To start the listing process, click on the button below
 
Add a business
 

Other Pages about Polly Ranch Airport

www.pollyranch.com
 
Update a link
 
Copyright © AirNav, LLC. All rights reserved. Privacy Policy  Contact